Lid_Strength_Index
5 5 5 6 6 7 5 3 6 1 1 6 6 7 6 9 6 5 6 5 6 8 8 7 7 7 6 5 5 6 5 7 9 8 5 5 5 6 7 9 10 8 9 9
5 5 5 6 6 6 4 4 4 1 2 8 7 5 5 6 6 6 6 7 5 5 7 8 8 7 4 5 6 7 6 7 10 9 7 5 7 6 6 6 7 9 10 9
5 5 5 6 6 6 4 4 6 3 4 4 5 5 6 6 5 6 6 6 5 6 6 5 7 6 6 6 5 2 5 7 8 10 8 6 7 7 6 7 9 8 8 7
5 5 5 5 6 7 4 3 5 4 6 5 5 5 5 6 6 4 5 6 6 6 7 6 7 6 5 5 6 4 5 8 7 7 6 7 7 7 7 7 7 8 7 7
5 5 5 5 6 7 5 5 5 4 5 4 5 6 6 6 5 5 6 6 5 5 6 6 7 5 5 6 5 5 5 7 7 8 7 6 7 7 7 7 7 7 7 7
5 5 5 5 6 7 5 4 3 4 6 5 6 6 5 5 5 5 4 5 5 6 5 4 4 4 4 4 5 6 6 7 7 9 7 7 9 7 7 6 6 6 8 6
4 5 5 5 5 6 5 5 5 5 6 5 5 5 5 5 5 6 5 4 5 4 2 3 3 4 4 4 4 4 6 6 7 9 8 12 7 5 6 6 6 5 5 5
4 5 4 4 5 5 5 4 5 6 6 5 6 5 5 5 4 5 5 4 3 2 3 6 7 6 6 5 5 5 5 6 8 10 9 8 7 6 6 7 7 5 5 4
4 4 5 4 4 5 5 4 4 5 7 6 5 6 5 6 5 5 4 3 2 3 5 6 9 9 8 8 7 4 5 5 7 8 11 12 7 5 4 5 9 4 4 4
5 5 5 4 4 5 5 4 3 6 7 6 5 6 7 4 5 6 4 4 4 3 6 8 8 8 6 8 8 8 8 7 8 8 9 8 5 5 4 9 8 5 4 4
4 4 5 4 4 4 5 4 2 4 5 4 4 4 5 5 4 6 5 5 5 5 7 8 7 8 6 7 6 7 8 9 9 8 9 11 5 5 8 6 4 4 4 4
4 4 5 4 4 5 5 5 2 2 5 4 3 3 2 3 3 4 4 5 5 5 7 6 6 7 6 8 9 5 9 7 8 7 8 5 4 5 4 4 4 4 4 4
4 4 4 4 4 5 5 5 4 3 5 4 3 3 1 1 3 3 5 4 4 3 3 5 6 8 6 8 8 6 5 4 7 6 5 5 4 4 4 3 4 3 3 3
4 4 4 4 4 4 5 6 4 3 4 6 4 1 2 0 1 3 3 3 3 3 3 5 6 7 5 7 6 6 5 5 7 6 5 4 4 4 4 4 3 3 3 3
4 4 4 4 3 4 5 5 5 4 4 7 5 2 1 1 1 2 3 4 4 5 5 5 6 5 5 5 5 6 4 5 6 7 4 5 4 3 3 3 3 3 3 3
4 4 4 4 3 4 5 4 3 3 3 5 7 2 2 2 2 2 2 3 4 4 4 5 4 3 4 7 7 4 4 3 3 4 3 3 3 3 2 3 3 3 3 2
4 4 5 5 4 4 4 5 4 4 2 5 7 5 3 2 2 2 3 2 3 3 4 5 5 4 5 6 7 4 4 3 3 3 3 4 3 4 2 2 2 3 2 2
4 5 5 5 4 4 4 3 5 3 3 3 7 6 5 2 4 5 2 4 4 4 5 4 5 4 5 8 5 4 3 3 3 3 2 3 2 2 2 2 2 3 3 3
4 5 5 4 3 3 3 4 5 3 3 7 6 8 9 3 4 4 4 4 6 4 6 5 5 6 8 6 5 4 4 4 4 3 3 3 3 3 3 3 3 3 3 3
5 4 4 5 3 3 3 3 5 5 4 4 7 4 6 3 5 5 5 5 6 8 6 4 6 7 4 4 4 3 3 3 3 4 4 4 4 3 3 3 3 3 3 2
5 5 6 3 4 2 4 7 7 6 8 5 5 5 6 3 6 7 4 8 6 9 7 7 8 8 6 4 4 3 3 2 2 2 2 2 3 3 3 3 3 2 2 2
7 7 6 5 4 5 7 8 7 7 8 6 6 5 5 4 2 6 5 7 6 10 4 8 10 8 5 4 4 3 3 3 3 2 3 3 3 3 3 2 2 2 2 2
5 7 8 7 6 12 10 11 9 9 6 5 5 7 4 4 4 5 6 8 9 5 9 10 9 6 5 4 4 3 3 3 3 3 3 3 3 2 2 3 2 2 2 2
7 8 12 9 10 8 7 7 7 6 5 5 5 5 6 5 7 6 9 7 7 10 11 11 9 6 5 4 3 3 4 3 3 3 3 3 3 2 2 2 2 2 2 2
8 7 12 8 6 5 5 5 5 5 4 5 6 5 6 7 8 7 8 10 11 10 11 9 6 5 4 4 3 3 4 3 3 3 3 3 3 3 2 2 2 1 2 2
8 7 8 6 6 6 5 5 6 4 4 4 5 7 8 9 7 10 10 10 11 10 6 5 5 4 4 4 3 3 3 3 3 2 2 2 3 3 3 2 2 2 2 2
8 8 6 6 6 6 6 4 4 3 5 7 6 10 9 6 9 9 8 10 8 6 5 4 4 4 4 3 3 3 2 3 2 2 2 3 2 2 3 3 2 2 2 2